This is the latest recevied weather packets stored in our database for station/object DF9PM-13. If no packets are shown the sender has not sent any weather packets the latest 10 day(s).
| Time | Temp. | Humidity | Pressure | Rain* | Wind** | Luminosity | Snow |
|---|---|---|---|---|---|---|---|
| 1777116432 | 23.89° C | 22% | 1018.4 hPa | - | - | - | - |
| 1777116132 | 22.78° C | 23% | 1018.4 hPa | - | - | - | - |
| 1777115832 | 21.67° C | 25% | 1018.4 hPa | - | - | - | - |
| 1777115532 | 22.78° C | 24% | 1018.4 hPa | - | - | - | - |
| 1777115232 | 24.44° C | 24% | 1018.5 hPa | - | - | - | - |
| 1777114932 | 22.78° C | 23% | 1018.5 hPa | - | - | - | - |
| 1777114632 | 22.22° C | 24% | 1018.5 hPa | - | - | - | - |
| 1777114332 | 22.22° C | 25% | 1018.5 hPa | - | - | - | - |
| 1777114032 | 22.78° C | 23% | 1018.6 hPa | - | - | - | - |
| 1777113733 | 22.78° C | 24% | 1018.5 hPa | - | - | - | - |
| 1777113432 | 21.11° C | 27% | 1018.6 hPa | - | - | - | - |
| 1777113132 | 22.22° C | 25% | 1018.6 hPa | - | - | - | - |
| 1777112832 | 21.67° C | 26% | 1018.7 hPa | - | - | - | - |
| 1777112532 | 20.56° C | 25% | 1018.7 hPa | - | - | - | - |
| 1777112231 | 21.11° C | 23% | 1018.7 hPa | - | - | - | - |
| 1777111931 | 22.78° C | 24% | 1018.7 hPa | - | - | - | - |
| 1777111631 | 23.33° C | 24% | 1018.7 hPa | - | - | - | - |
| 1777111331 | 22.22° C | 27% | 1018.7 hPa | - | - | - | - |
| 1777111031 | 22.78° C | 27% | 1018.7 hPa | - | - | - | - |
| 1777110731 | 22.78° C | 29% | 1018.8 hPa | - | - | - | - |
| 1777110431 | 21.67° C | 28% | 1018.8 hPa | - | - | - | - |
| 1777110131 | 22.22° C | 29% | 1018.8 hPa | - | - | - | - |
| 1777109831 | 22.22° C | 30% | 1018.8 hPa | - | - | - | - |
| 1777109531 | 21.11° C | 30% | 1018.9 hPa | - | - | - | - |
| 1777109231 | 22.22° C | 28% | 1018.8 hPa | - | - | - | - |
* Rain since midnight (hover to see other rain measurements)
** Current wind speed in m/s (hover to see current wind gust speed)